[[{"header":{"parameterUnit":"m.s-1","parameterCategory":1,"la1":30.2991,"la2":30.254,"lo1":-89.0895,"lo2":-89.0444,"dy":0.0017,"dx":0.0017,"nx":28,"ny":28,"refTime":"2023-03-17T21:00:00:Z","depth":0,"parameterNumber":2,"parameterNumberName":"U-component_of_WINDS"},"data":[0,0,0,0,0,0,0,0,0,0,0,0,0,0,0,0,0,0,0,0,0,0,0,0,0,0,0,0,0,0,0,0,0,0,0,0,0,0,0,0,0,0,0,0,0,0,0,0,0,0,0,0,0,0,0,0,0,0,0.271,0.271,0,0.2685,0.2684,0.2684,0.2687,0.2687,0.2688,0.2688,0.2661,0.2659,0.2658,0,0,0,0,0,0,0,0,0,0,0,0,0,0.2761,0.276,0.271,0.271,0.2709,0.2685,0.2684,0.2684,0.2687,0.2687,0.2688,0.2688,0.2661,0.266,0.2658,0,0,0,0,0,0,0,0,0,0,0,0,0,0.2737,0.2759,0.271,0.2708,0.2707,0.2685,0.2684,0.2684,0.2687,0.2687,0.2688,0.2688,0.2661,0.266,0.2658,0.2635,0,0,0.2653,0.2652,0,0,0,0,0,0,0,0,0.2739,0.2735,0.2709,0.2708,0.2707,0.269,0.2692,0.2668,0.2687,0.2695,0.2688,0.2689,0.267,0.2667,0.2661,0.2634,0.2633,0.2653,0.2652,0.2651,0.2651,0,0,0,0,0,0,0,0.274,0.2737,0.27,0.2708,0.2708,0.2708,0.2705,0.2687,0.2679,0.2694,0.2694,0.2691,0.2669,0.2663,0.266,0.2633,0.2653,0.2651,0.265,0.265,0.2587,0.2586,0,0,0,0,0,0,0.2743,0.2738,0.2701,0.2699,0.2725,0.2707,0.2704,0.2695,0.2679,0.2677,0.2691,0.2691,0.2665,0.2662,0.266,0.2632,0.2651,0.265,0.2649,0.2588,0.2587,0.2586,0,0,0,0,0,0,0.2744,0.2739,0.2702,0.2719,0.2714,0.2705,0.2695,0.2694,0.2687,0.2677,0.2675,0.2685,0.2666,0.2662,0.2642,0.2631,0.2649,0.2647,0.2588,0.2587,0.2586,0.2578,0,0,0,0,0,0,0.2745,0.274,0.2731,0.2718,0.2713,0.2684,0.2694,0.2693,0.2684,0.2685,0.2671,0.267,0.2666,0.2644,0.264,0.2629,0.2646,0.2589,0.2588,0.2587,0.2579,0.2577,0.2575,0,0,0,0,0,0.2747,0.2729,0.273,0.2726,0.2702,0.2684,0.2681,0.2677,0.2684,0.2675,0.2668,0.267,0.2634,0.2642,0.2638,0.2626,0.259,0.2588,0.2587,0.258,0.2577,0.2575,0,0,0,0,0,0,0.2739,0.2727,0.2729,0.2706,0.2696,0.2684,0.2673,0.2674,0.2662,0.2663,0.2659,0.2656,0.2635,0.2629,0.2639,0.2604,0.2613,0.261,0.2609,0.2606,0.2604,0.2606,0.2645,0,0,0,0,0,0.2736,0.2722,0.2712,0.2693,0.2688,0.2682,0.2673,0.2672,0.2661,0.2657,0.2649,0.2638,0.2624,0.2615,0.2602,0.2579,0.2576,0.2569,0.2567,0.2565,0.2562,0.255,0.2547,0.2581,0.2581,0.2581,0,0,0.2726,0.2718,0.271,0.2692,0.2683,0.267,0.2678,0.2663,0.2652,0.2654,0.2635,0.2629,0.2616,0.2595,0.2585,0.2589,0.2553,0.2563,0.2562,0.256,0.2549,0.2545,0.2542,0.258,0.258,0.258,0,0,0.2703,0.2696,0.2679,0.2671,0.266,0.2656,0.2652,0.264,0.2636,0.2617,0.2619,0.2607,0.2583,0.2574,0.2567,0.2542,0.2543,0.2538,0.2526,0.2514,0.2512,0.2509,0.2501,0.2497,0.2536,0.2536,0.2536,0,0.2693,0.2673,0.2671,0.2655,0.2648,0.265,0.2633,0.2626,0.261,0.2605,0.261,0.2581,0.2572,0.2549,0.2543,0.2537,0.2533,0.2539,0.2512,0.251,0.2508,0.2499,0.2496,0.2535,0.2535,0.2535,0.2535,0,0.2661,0.2647,0.2635,0.2621,0.2612,0.2596,0.2592,0.2583,0.2583,0.2578,0.2559,0.255,0.2535,0.2529,0.2529,0.2506,0.2509,0.2513,0.2522,0.2504,0.2496,0.2493,0.2534,0.2534,0.2534,0.2535,0,0,0.2631,0.2617,0.2612,0.2606,0.2594,0.2583,0.2568,0.2554,0.2547,0.2536,0.2523,0.2504,0.2508,0.25,0.2498,0.2488,0.247,0.2494,0.2493,0.2489,0.2445,0.2442,0.2438,0.2471,0.247,0.247,0.2446,0,0.2606,0.2579,0.2578,0.2553,0.254,0.2543,0.253,0.2522,0.2517,0.2506,0.2501,0.2488,0.2494,0.2489,0.248,0.2474,0.246,0.2476,0.2459,0.2458,0.2461,0.2434,0.243,0.2407,0.2443,0.2442,0.2442,0,0.2573,0.2562,0.2537,0.2528,0.2522,0.251,0.2498,0.2487,0.2478,0.2476,0.2467,0.2467,0.2452,0.2462,0.2441,0.2451,0.2445,0.2441,0.244,0.2437,0.2448,0.243,0.24,0.2397,0.2437,0.2437,0.2438,0,0.2553,0.2532,0.2515,0.251,0.2498,0.249,0.2485,0.2476,0.2469,0.2458,0.2453,0.2441,0.2434,0.2424,0.2422,0.2429,0.2401,0.241,0.2398,0.2398,0.2391,0.2392,0.236,0.2388,0.2388,0.2388,0.2388,0,0.2525,0.2509,0.2506,0.2495,0.2478,0.2477,0.246,0.2455,0.2448,0.2436,0.2438,0.2427,0.2424,0.2413,0.2411,0.2394,0.2391,0.2388,0.2388,0.2388,0.2388,0.2383,0.2384,0.2387,0.2387,0.2388,0.2388,0,0.2499,0.2496,0.2477,0.2469,0.2467,0.2454,0.2447,0.2437,0.2434,0.2419,0.2416,0.241,0.2397,0.2394,0.2378,0.2377,0.2357,0.2358,0.236,0.236,0.2348,0.2349,0.2311,0.2306,0.2338,0.2338,0.2337,0,0.2481,0.2469,0.246,0.2453,0.2447,0.2435,0.2428,0.2427,0.2419,0.2408,0.2399,0.2386,0.2376,0.2355,0.235,0.2338,0.2339,0.2326,0.2337,0.2337,0.2338,0.2339,0.2338,0.2324,0.2323,0.2323,0.2323,0,0.2449,0.2449,0.2438,0.2427,0.2418,0.2409,0.2401,0.2395,0.2393,0.2384,0.2371,0.2363,0.2347,0.2335,0.2323,0.2318,0.232,0.232,0.2317,0.2316,0.2318,0.2316,0.2354,0.232,0.2321,0.2321,0.2321,0.2321,0.2426,0.2416,0.2408,0.2397,0.2391,0.2383,0.2373,0.2369,0.2359,0.2346,0.2347,0.2332,0.2324,0.2309,0.2304,0.2293,0.2296,0.2291,0.229,0.2289,0.2288,0.232,0.2291,0.2291,0.2291,0.2291,0.2291,0,0.2394,0.239,0.2379,0.2368,0.2359,0.2363,0.2354,0.2346,0.2334,0.2326,0.2317,0.2302,0.2291,0.2285,0.2274,0.2266,0.2267,0.2263,0.2263,0.2262,0.2285,0.2289,0.2263,0.2263,0.2263,0.2263,0.2263,0.2263,0.2376,0.236,0.2359,0.2339,0.2335,0.2322,0.2316,0.231,0.2304,0.2288,0.2278,0.2275,0.2269,0.2257,0.2247,0.2246,0.2241,0.2237,0.2236,0.2257,0.226,0.2263,0.2267,0.2236,0.2236,0.2214,0.2214,0.2214]},{"header":{"parameterUnit":"m.s-1","parameterCategory":1,"la1":30.2991,"la2":30.254,"lo1":-89.0895,"lo2":-89.0444,"dy":0.0017,"dx":0.0017,"nx":28,"ny":28,"refTime":"2023-03-17T21:00:00:Z","depth":0,"parameterNumber":3,"parameterNumberName":"V-component_of_WINDS"},"data":[0,0,0,0,0,0,0,0,0,0,0,0,0,0,0,0,0,0,0,0,0,0,0,0,0,0,0,0,0,0,0,0,0,0,0,0,0,0,0,0,0,0,0,0,0,0,0,0,0,0,0,0,0,0,0,0,0,0,-8.5003,-8.5005,0,-8.5145,-8.5146,-8.5148,-8.5054,-8.5049,-8.5045,-8.5041,-8.5179,-8.5187,-8.5195,0,0,0,0,0,0,0,0,0,0,0,0,0,-8.4647,-8.4654,-8.5003,-8.5005,-8.5007,-8.5144,-8.5146,-8.5148,-8.5054,-8.5049,-8.5044,-8.5039,-8.5177,-8.5186,-8.5195,0,0,0,0,0,0,0,0,0,0,0,0,0,-8.4796,-8.4656,-8.5003,-8.4977,-8.4976,-8.5144,-8.5146,-8.5149,-8.5056,-8.5049,-8.5043,-8.5037,-8.5174,-8.5185,-8.5196,-8.5396,0,0,-8.5232,-8.5237,0,0,0,0,0,0,0,0,-8.4788,-8.4809,-8.4979,-8.4979,-8.4978,-8.5075,-8.5071,-8.5231,-8.5057,-8.5025,-8.5041,-8.5034,-8.515,-8.5163,-8.5203,-8.5403,-8.5409,-8.5233,-8.524,-8.5245,-8.5248,0,0,0,0,0,0,0,-8.4777,-8.4802,-8.5059,-8.4981,-8.4981,-8.4956,-8.497,-8.5101,-8.5121,-8.5027,-8.5021,-8.5039,-8.5148,-8.5192,-8.5206,-8.5411,-8.5232,-8.5243,-8.525,-8.5254,-8.5782,-8.5789,0,0,0,0,0,0,-8.477,-8.4794,-8.5054,-8.5063,-8.4865,-8.4968,-8.4984,-8.505,-8.512,-8.5124,-8.5045,-8.5034,-8.5176,-8.5192,-8.521,-8.545,-8.5245,-8.5255,-8.5262,-8.5775,-8.5783,-8.5791,0,0,0,0,0,0,-8.4763,-8.4794,-8.5049,-8.4927,-8.4958,-8.4981,-8.5056,-8.5056,-8.5101,-8.5133,-8.5135,-8.5087,-8.5171,-8.5194,-8.5351,-8.5453,-8.526,-8.5271,-8.5766,-8.5777,-8.5787,-8.5929,0,0,0,0,0,0,-8.4753,-8.4792,-8.487,-8.493,-8.4965,-8.519,-8.5063,-8.5064,-8.5122,-8.5109,-8.5173,-8.5177,-8.5168,-8.5335,-8.5363,-8.5465,-8.528,-8.5757,-8.5771,-8.5784,-8.5916,-8.5944,-8.5968,0,0,0,0,0,-8.4741,-8.4902,-8.4874,-8.4906,-8.5062,-8.5196,-8.5215,-8.5204,-8.513,-8.5207,-8.5228,-8.5175,-8.5437,-8.5352,-8.5382,-8.549,-8.5751,-8.5767,-8.5783,-8.5904,-8.5938,-8.5967,0,0,0,0,0,0,-8.4851,-8.491,-8.4879,-8.5065,-8.5127,-8.518,-8.5277,-8.524,-8.5321,-8.5306,-8.5286,-8.5301,-8.5466,-8.5493,-8.5397,-8.5687,-8.5582,-8.5605,-8.5664,-8.5696,-8.5722,-8.5712,-8.529,0,0,0,0,0,-8.4897,-8.5003,-8.5047,-8.5207,-8.524,-8.5254,-8.5311,-8.5297,-8.5359,-8.5383,-8.5416,-8.5476,-8.5572,-8.5635,-8.5725,-8.5919,-8.5931,-8.6008,-8.6034,-8.6055,-8.6075,-8.618,-8.6215,-8.5844,-8.5844,-8.5843,0,0,-8.4993,-8.5038,-8.5106,-8.5231,-8.5277,-8.5385,-8.5276,-8.5394,-8.5474,-8.5401,-8.5552,-8.5578,-8.5644,-8.5821,-8.59,-8.5849,-8.6181,-8.6075,-8.6092,-8.6101,-8.6201,-8.6236,-8.6267,-8.5855,-8.5853,-8.5851,0,0,-8.5224,-8.5269,-8.5408,-8.5457,-8.5529,-8.5537,-8.557,-8.563,-8.5645,-8.5798,-8.5745,-8.5838,-8.6004,-8.6053,-8.61,-8.6352,-8.6306,-8.6381,-8.6516,-8.6619,-8.6649,-8.6674,-8.6765,-8.6798,-8.6401,-8.6401,-8.6402,0,-8.5334,-8.5497,-8.5483,-8.5608,-8.5664,-8.5605,-8.5745,-8.5792,-8.5889,-8.5928,-8.5869,-8.6077,-8.6117,-8.6305,-8.6367,-8.6407,-8.6444,-8.6374,-8.6646,-8.6672,-8.6695,-8.6782,-8.6816,-8.641,-8.6409,-8.6408,-8.6407,0,-8.5629,-8.5743,-8.5846,-8.5945,-8.6013,-8.6144,-8.6149,-8.6219,-8.6199,-8.6213,-8.6369,-8.6415,-8.6514,-8.6557,-8.6537,-8.6743,-8.6709,-8.6649,-8.6543,-8.674,-8.6821,-8.6853,-8.6423,-8.642,-8.6417,-8.6415,0,0,-8.5933,-8.6024,-8.6062,-8.6106,-8.6182,-8.6269,-8.6397,-8.6496,-8.6557,-8.6625,-8.6732,-8.6874,-8.682,-8.6873,-8.6858,-8.6949,-8.7146,-8.6877,-8.6878,-8.6926,-8.7376,-8.7422,-8.746,-8.7116,-8.7122,-8.7127,-8.7371,0,-8.6169,-8.6396,-8.6388,-8.6599,-8.6704,-8.665,-8.6761,-8.6819,-8.6835,-8.6925,-8.6942,-8.7044,-8.6964,-8.6996,-8.7083,-8.7104,-8.7236,-8.7086,-8.7214,-8.7219,-8.7201,-8.7502,-8.7551,-8.7779,-8.7402,-8.7407,-8.7411,0,-8.6475,-8.6557,-8.678,-8.6841,-8.6885,-8.6986,-8.7077,-8.7164,-8.7228,-8.7233,-8.7294,-8.7265,-8.7394,-8.7285,-8.7461,-8.7359,-8.7411,-8.7429,-8.7438,-8.745,-8.7328,-8.7523,-8.7851,-8.7886,-8.7461,-8.7457,-8.7453,0,-8.6676,-8.6842,-8.6997,-8.7036,-8.7111,-8.7184,-8.7218,-8.7275,-8.7336,-8.7415,-8.7454,-8.7545,-8.7596,-8.7666,-8.7663,-8.7583,-8.7842,-8.7732,-8.785,-8.785,-8.7907,-8.7904,-8.8249,-8.794,-8.7939,-8.7938,-8.7938,0,-8.6941,-8.7079,-8.7088,-8.7184,-8.7337,-8.7326,-8.7477,-8.7503,-8.7555,-8.7654,-8.7611,-8.7703,-8.7693,-8.7786,-8.7783,-8.793,-8.7953,-8.796,-8.7958,-8.7965,-8.7964,-8.7999,-8.7983,-8.7947,-8.7945,-8.7944,-8.7942,0,-8.7192,-8.7203,-8.7369,-8.7427,-8.7445,-8.7556,-8.7604,-8.7694,-8.7707,-8.7833,-8.7861,-8.7881,-8.7989,-8.7992,-8.8114,-8.8113,-8.8293,-8.8272,-8.8272,-8.8269,-8.8387,-8.8376,-8.8767,-8.8818,-8.8475,-8.8478,-8.848,0,-8.736,-8.7466,-8.7537,-8.7601,-8.7641,-8.7744,-8.7807,-8.7799,-8.7866,-8.7947,-8.8027,-8.8131,-8.8214,-8.8388,-8.8412,-8.8506,-8.8488,-8.8618,-8.8501,-8.8505,-8.8491,-8.8485,-8.8496,-8.8641,-8.8645,-8.8648,-8.8651,0,-8.766,-8.7661,-8.7754,-8.785,-8.7926,-8.8001,-8.807,-8.8124,-8.8124,-8.8201,-8.8312,-8.8376,-8.8503,-8.8607,-8.8698,-8.873,-8.8691,-8.8687,-8.872,-8.8728,-8.8725,-8.8729,-8.8336,-8.8678,-8.8676,-8.8674,-8.8672,-8.8671,-8.7875,-8.7967,-8.8032,-8.8137,-8.8189,-8.8255,-8.8343,-8.8368,-8.8462,-8.8566,-8.8555,-8.8678,-8.8739,-8.8858,-8.8899,-8.8994,-8.8949,-8.8995,-8.9007,-8.9019,-8.9032,-8.8709,-8.901,-8.9009,-8.9009,-8.9008,-8.9007,0,-8.8173,-8.8212,-8.831,-8.8409,-8.8492,-8.845,-8.8524,-8.8596,-8.8706,-8.8767,-8.8851,-8.8978,-8.9079,-8.9112,-8.9209,-8.9279,-8.9264,-8.9305,-8.93,-8.9308,-8.9067,-8.903,-8.9316,-8.9316,-8.9316,-8.9316,-8.9316,-8.9316,-8.8338,-8.8492,-8.8501,-8.868,-8.8717,-8.884,-8.8886,-8.8947,-8.8996,-8.9141,-8.9226,-8.9248,-8.9298,-8.9398,-8.9488,-8.9495,-8.9533,-8.9583,-8.9582,-8.9356,-8.9325,-8.9296,-8.9261,-8.9591,-8.9591,-8.9816,-8.9818,-8.982]}]]